Stündliche Wetter Dziecmierowo

Heute, 14 Juni, Montag

Zeit Temperatur Niederschläge Wind Luftdruck Luftfeuchtigkeit
00:00 +9°C° 0 mm 3 m/S 760 mmHg 88%
01:00 +8°C° 0 mm 3 m/S 760 mmHg 90%
02:00 +8°C° 0 mm 2 m/S 760 mmHg 91%
03:00 +8°C° 0 mm 2 m/S 760 mmHg 92%
04:00 +8°C° 0 mm 2 m/S 760 mmHg 92%
05:00 +10°C° 0 mm 2 m/S 760 mmHg 87%
06:00 +13°C° 0 mm 2 m/S 760 mmHg 82%
07:00 +14°C° 0 mm 2 m/S 760 mmHg 77%
08:00 +16°C° 0 mm 2 m/S 760 mmHg 72%
09:00 +17°C° 0 mm 2 m/S 760 mmHg 66%
10:00 +19°C° 0 mm 2 m/S 759 mmHg 60%
11:00 +20°C° 0 mm 2 m/S 759 mmHg 57%
12:00 +20°C° 0 mm 2 m/S 759 mmHg 54%
13:00 +21°C° 0 mm 2 m/S 758 mmHg 51%
14:00 +23°C° 0 mm 2 m/S 758 mmHg 51%
15:00 +23°C° 0 mm 2 m/S 758 mmHg 50%
16:00 +23°C° 0 mm 2 m/S 757 mmHg 50%
17:00 +21°C° 0 mm 2 m/S 757 mmHg 56%
18:00 +20°C° 0 mm 2 m/S 757 mmHg 62%
19:00 +19°C° 0 mm 2 m/S 756 mmHg 68%
20:00 +18°C° 0 mm 2 m/S 756 mmHg 69%
21:00 +17°C° 0 mm 3 m/S 757 mmHg 71%
22:00 +14°C° 0 mm 3 m/S 757 mmHg 72%
23:00 +14°C° 0 mm 3 m/S 756 mmHg 73%

Morgen, 15 Juni, Dienstag

Zeit Temperatur Niederschläge Wind Luftdruck Luftfeuchtigkeit
00:00 +14°C° 0 mm 3 m/S 756 mmHg 73%
01:00 +13°C° 0 mm 3 m/S 756 mmHg 74%
02:00 +13°C° 0 mm 3 m/S 756 mmHg 75%
03:00 +13°C° 0 mm 3 m/S 756 mmHg 76%
04:00 +13°C° 0 mm 3 m/S 756 mmHg 77%
05:00 +14°C° 0 mm 3 m/S 756 mmHg 75%
06:00 +17°C° 0 mm 2 m/S 756 mmHg 74%
07:00 +18°C° 0 mm 2 m/S 756 mmHg 73%
08:00 +19°C° 0 mm 2 m/S 756 mmHg 70%
09:00 +21°C° 0 mm 2 m/S 756 mmHg 66%
10:00 +23°C° 0 mm 2 m/S 756 mmHg 63%
11:00 +24°C° 0 mm 2 m/S 756 mmHg 62%
12:00 +24°C° 0 mm 2 m/S 756 mmHg 61%
13:00 +25°C° 0 mm 2 m/S 755 mmHg 59%
14:00 +24°C° 0.2 mm 3 m/S 755 mmHg 65%
15:00 +22°C° 0.2 mm 3 m/S 755 mmHg 71%
16:00 +22°C° 0.2 mm 3 m/S 755 mmHg 77%
17:00 +21°C° 0.3 mm 3 m/S 755 mmHg 80%
18:00 +20°C° 0.3 mm 3 m/S 756 mmHg 83%
19:00 +19°C° 0.3 mm 3 m/S 756 mmHg 86%
20:00 +18°C° 0.1 mm 3 m/S 756 mmHg 87%
21:00 +17°C° 0.1 mm 3 m/S 756 mmHg 87%
22:00 +14°C° 0.1 mm 3 m/S 757 mmHg 88%
23:00 +13°C° 0 mm 3 m/S 757 mmHg 86%

übermorgen, 16 Juni, Mittwoch

Zeit Temperatur Niederschläge Wind Luftdruck Luftfeuchtigkeit
00:00 +12°C° 0 mm 3 m/S 757 mmHg 84%
01:00 +11°C° 0 mm 3 m/S 757 mmHg 82%
02:00 +10°C° 0 mm 3 m/S 757 mmHg 85%
03:00 +10°C° 0 mm 3 m/S 757 mmHg 88%
04:00 +10°C° 0 mm 2 m/S 757 mmHg 91%
05:00 +13°C° 0 mm 2 m/S 758 mmHg 87%
06:00 +13°C° 0 mm 3 m/S 758 mmHg 84%
07:00 +16°C° 0 mm 3 m/S 758 mmHg 81%
08:00 +17°C° 0 mm 3 m/S 758 mmHg 75%
09:00 +19°C° 0 mm 2 m/S 758 mmHg 70%
10:00 +20°C° 0 mm 2 m/S 758 mmHg 64%
11:00 +21°C° 0 mm 2 m/S 758 mmHg 60%
12:00 +23°C° 0 mm 2 m/S 758 mmHg 57%
13:00 +24°C° 0 mm 2 m/S 757 mmHg 53%
14:00 +24°C° 0 mm 2 m/S 757 mmHg 52%
15:00 +24°C° 0 mm 3 m/S 757 mmHg 52%
16:00 +24°C° 0 mm 3 m/S 757 mmHg 51%
17:00 +22°C° 0 mm 3 m/S 757 mmHg 58%
18:00 +21°C° 0 mm 3 m/S 757 mmHg 64%
19:00 +20°C° 0 mm 3 m/S 757 mmHg 71%
20:00 +19°C° 0 mm 3 m/S 757 mmHg 73%
21:00 +17°C° 0 mm 3 m/S 757 mmHg 75%
22:00 +16°C° 0 mm 3 m/S 757 mmHg 77%
23:00 +14°C° 0 mm 3 m/S 757 mmHg 76%

17 Juni, Donnerstag

Zeit Temperatur Niederschläge Wind Luftdruck Luftfeuchtigkeit
00:00 +14°C° 0 mm 3 m/S 757 mmHg 75%
01:00 +13°C° 0 mm 3 m/S 757 mmHg 74%
02:00 +13°C° 0 mm 3 m/S 757 mmHg 76%
03:00 +13°C° 0 mm 3 m/S 757 mmHg 77%
04:00 +12°C° 0 mm 3 m/S 757 mmHg 78%
05:00 +14°C° 0 mm 4 m/S 757 mmHg 75%
06:00 +17°C° 0 mm 4 m/S 757 mmHg 72%
07:00 +18°C° 0 mm 4 m/S 758 mmHg 69%
08:00 +20°C° 0 mm 4 m/S 758 mmHg 65%
09:00 +21°C° 0 mm 5 m/S 758 mmHg 61%
10:00 +23°C° 0 mm 5 m/S 758 mmHg 57%
11:00 +25°C° 0 mm 5 m/S 757 mmHg 54%
12:00 +25°C° 0 mm 5 m/S 757 mmHg 51%
13:00 +26°C° 0 mm 5 m/S 757 mmHg 48%
14:00 +26°C° 0 mm 5 m/S 757 mmHg 48%
15:00 +26°C° 0 mm 5 m/S 757 mmHg 48%
16:00 +26°C° 0 mm 4 m/S 756 mmHg 49%
17:00 +25°C° 0 mm 4 m/S 756 mmHg 56%
18:00 +23°C° 0 mm 4 m/S 756 mmHg 63%
19:00 +21°C° 0 mm 3 m/S 756 mmHg 71%
20:00 +20°C° 0 mm 3 m/S 756 mmHg 73%
21:00 +19°C° 0 mm 4 m/S 756 mmHg 76%
22:00 +17°C° 0 mm 4 m/S 756 mmHg 78%
23:00 +17°C° 0 mm 4 m/S 756 mmHg 80%

18 Juni, Freitag

Zeit Temperatur Niederschläge Wind Luftdruck Luftfeuchtigkeit
00:00 +15°C° 0 mm 4 m/S 756 mmHg 81%
01:00 +16°C° 0 mm 3 m/S 756 mmHg 82%
02:00 +14°C° 0 mm 3 m/S 756 mmHg 85%
03:00 +14°C° 0 mm 3 m/S 756 mmHg 88%
04:00 +14°C° 0 mm 3 m/S 756 mmHg 90%
05:00 +17°C° 0 mm 4 m/S 756 mmHg 86%
06:00 +19°C° 0 mm 4 m/S 756 mmHg 81%
07:00 +21°C° 0 mm 5 m/S 756 mmHg 77%
08:00 +22°C° 0 mm 5 m/S 756 mmHg 72%
09:00 +25°C° 0 mm 5 m/S 756 mmHg 66%
10:00 +27°C° 0 mm 6 m/S 755 mmHg 61%
11:00 +28°C° 0 mm 5 m/S 755 mmHg 58%
12:00 +29°C° 0 mm 5 m/S 755 mmHg 55%
13:00 +30°C° 0 mm 5 m/S 755 mmHg 52%
14:00 +30°C° 0 mm 5 m/S 755 mmHg 52%
15:00 +30°C° 0 mm 4 m/S 755 mmHg 52%
16:00 +30°C° 0 mm 4 m/S 755 mmHg 53%
17:00 +29°C° 0 mm 4 m/S 755 mmHg 59%
18:00 +28°C° 0 mm 4 m/S 755 mmHg 66%
19:00 +27°C° 0 mm 3 m/S 755 mmHg 72%
20:00 +25°C° 0 mm 4 m/S 755 mmHg 75%
21:00 +23°C° 0 mm 4 m/S 755 mmHg 77%
22:00 +21°C° 0 mm 4 m/S 756 mmHg 80%
23:00 +21°C° 0 mm 3 m/S 756 mmHg 83%

19 Juni, Samstag

Zeit Temperatur Niederschläge Wind Luftdruck Luftfeuchtigkeit
00:00 +20°C° 0 mm 3 m/S 756 mmHg 87%
01:00 +20°C° 0 mm 3 m/S 756 mmHg 90%
02:00 +20°C° 0 mm 3 m/S 756 mmHg 92%
03:00 +19°C° 0 mm 3 m/S 756 mmHg 93%
04:00 +19°C° 0 mm 3 m/S 756 mmHg 94%
05:00 +21°C° 0 mm 3 m/S 756 mmHg 88%
06:00 +22°C° 0 mm 4 m/S 756 mmHg 83%
07:00 +23°C° 0 mm 4 m/S 757 mmHg 77%
08:00 +26°C° 0 mm 4 m/S 757 mmHg 71%
09:00 +27°C° 0 mm 5 m/S 757 mmHg 64%
10:00 +28°C° 0 mm 5 m/S 757 mmHg 58%
11:00 +28°C° 0 mm 5 m/S 756 mmHg 54%
12:00 +29°C° 0 mm 5 m/S 756 mmHg 51%
13:00 +30°C° 0 mm 6 m/S 756 mmHg 47%
14:00 +30°C° 0 mm 5 m/S 756 mmHg 48%
15:00 +30°C° 0 mm 5 m/S 756 mmHg 50%
16:00 +30°C° 0 mm 4 m/S 755 mmHg 51%
17:00 +29°C° 0 mm 4 m/S 755 mmHg 59%
18:00 +27°C° 0 mm 4 m/S 755 mmHg 67%
19:00 +26°C° 0 mm 4 m/S 755 mmHg 75%
20:00 +25°C° 0 mm 4 m/S 755 mmHg 76%
21:00 +23°C° 0 mm 4 m/S 755 mmHg 78%
22:00 +22°C° 0 mm 4 m/S 756 mmHg 79%
23:00 +21°C° 0 mm 4 m/S 755 mmHg 82%
Mehr zeigen

Wir brauchen deine Erlaubnis

Meteoprog und unser Service Anbieter werden persönliche Daten aufbewahren, so wie Cookies, Geräte Bezeichnung oder ähnliche Technologien von deinem Gerät und Prozess, so wie Persönliche Daten Inhalte und Werbungen, genauso wie social Media und den Verkehr zu analysieren.

  • Aufbewahrung und/oder Zugang zu deiner Geräte Informationen.

    Cookies, Geräte Bezeichnung oder andere Informationen, können aufbewahrt oder Zugang zu deinem Gerät erhalten, für den Grund, der oben angegeben wird.

  • Personalisierte Werbung und Inhalte, Messungen, Einblick in das Publikum und Produkt Entwicklung.

    Werbungen und Inhalte können personalisiert werden, basierend auf ein Profil. Mehr Daten können besser personalisierte Werbungen und Inhalte hinzufügen. Werbung und Inhalte können gezeigt und gemessen werden. Einblicke über das Publikum, welche die Werbung gesehen haben und den Inhalt, können abgeleitet werden. So wie Daten können genutzt werden, um es zu verbessern oder die Benutzer Erfahrung zu verbessern das System und die Software.

Wenn du “Ich stimme zu” klickst, erlaubst du uns, die Cookies zu benutzen die Geräte Bezeichnung, den Web oder ähnliche Technologien zu benutzen. Deine Settings, können in deinem Gerät bei deinem Browser geändert werden.

Für den bestimmten Zweck, berechtigten Interessen beruhen darauf, mehr als auf den Inhalt. Du kannst mehr darüber in unseren Privaten und Cookie Politik lesen.